Weather History for Piney Island, NC

Change the Weather History Date:

Sunday, September 2, 2012

  Actual Average (KMRH) Record (KMRH)
Temperature  
Mean Temperature 86 °F -  
Max Temperature 93 °F 85 °F 90 °F (1950)
Min Temperature 79 °F 69 °F 56 °F (1967)
Cooling Degree Days 20    
Growing Degree Days 36 (Base 50)    
Moisture  
Dew Point 77 °F    
Average Humidity 85    
Maximum Humidity 94    
Minimum Humidity 53    
Precipitation  
Precipitation 0.06 in - - ()
Sea Level Pressure  
Sea Level Pressure 30.02 in    
Wind  
Wind Speed 3 mph (SSW)    
Max Wind Speed 10 mph    
Max Gust Speed -    
Visibility 5 miles    
Events Fog , Rain    
Averages and records for this station are not official NWS values.
T = Trace of Precipitation, MM = Missing Value Source: NWS Daily Summary

Daily Weather History Graph

Daily Weather History Graph

Search for Another Location

Airport:

Trip Planner

Search our weather history database for the weather conditions in past years. The results will help you decide how hot, cold, wet, or windy it might be!

Date:

Astronomy

Sep. 02, 2012 Rise Set
Actual Time 6:39 AM EDT 7:30 PM EDT
Civil Twilight 6:13 AM EDT 7:56 PM EDT
Nautical Twilight 5:43 AM EDT 8:26 PM EDT
Astronomical Twilight 5:11 AM EDT 8:57 PM EDT
Moon 8:25 PM EDT (9/2) 8:38 AM EDT (9/2)
Length of Visible Light 13h 42m
Length of Day
12h 50m
Waning Gibbous, 95% of the Moon is Illuminated
Sep 2
Waning Gibbous
Sep 8
Last Quarter
Sep 15
New
Sep 22
First Quarter
Sep 29
Full

Hourly Weather History & Observations

Time (EDT) Temp. Heat Index Dew Point Humidity Pressure Visibility Wind Dir Wind Speed Gust Speed Precip Events Conditions
12:56 AM 82.0 °F 91.0 °F 78.1 °F 88% 30.04 in 4.0 mi SW 4.6 mph - N/A   Clear
1:56 AM 82.0 °F 91.6 °F 79.0 °F 90% 30.03 in 6.0 mi West 3.5 mph - N/A   Clear
2:56 AM 82.0 °F 91.0 °F 78.1 °F 88% 30.02 in 5.0 mi Calm Calm - N/A   Clear
3:56 AM 82.0 °F 91.6 °F 79.0 °F 90% 30.02 in 5.0 mi NW 4.6 mph - N/A   Clear
4:56 AM 82.0 °F 91.6 °F 79.0 °F 90% 30.01 in 4.0 mi Calm Calm - N/A   Clear
5:56 AM 82.0 °F 91.6 °F 79.0 °F 90% 30.01 in 4.0 mi Calm Calm - N/A   Scattered Clouds
6:27 AM 82.4 °F 92.4 °F 78.8 °F 89% 30.00 in 2.5 mi Calm Calm - N/A   Clear
6:56 AM 82.0 °F 92.8 °F 80.1 °F 94% 30.03 in 0.2 mi Variable 3.5 mph - N/A Fog Fog
7:03 AM 80.6 °F 88.1 °F 78.8 °F 94% 30.02 in 0.2 mi SSW 3.5 mph - N/A Fog Fog
7:08 AM 80.6 °F 88.1 °F 78.8 °F 94% 30.02 in 0.8 mi SSW 4.6 mph - N/A   Mist
7:15 AM 80.6 °F 88.1 °F 78.8 °F 94% 30.02 in 1.8 mi SSW 3.5 mph - N/A   Mostly Cloudy
7:31 AM 80.6 °F 88.1 °F 78.8 °F 94% 30.02 in 2.0 mi SW 3.5 mph - N/A   Overcast
7:56 AM 82.0 °F 91.0 °F 78.1 °F 88% 30.04 in 2.5 mi South 3.5 mph - N/A   Overcast
8:23 AM 82.4 °F 92.4 °F 78.8 °F 89% 30.02 in 0.8 mi Calm Calm - N/A   Overcast
8:26 AM 82.4 °F 92.4 °F 78.8 °F 89% 30.02 in 0.2 mi Calm Calm - N/A Fog Fog
8:39 AM 82.4 °F 94.0 °F 80.6 °F 94% 30.02 in 0.2 mi Calm Calm - N/A Fog Fog
8:56 AM 82.0 °F 92.8 °F 80.1 °F 94% 30.03 in 0.2 mi Calm Calm - N/A Fog Fog
9:16 AM 82.4 °F 94.0 °F 80.6 °F 94% 30.02 in 0.8 mi Calm Calm - N/A   Mist
9:21 AM 82.4 °F 94.0 °F 80.6 °F 94% 30.02 in 2.0 mi Calm Calm - N/A   Overcast
9:29 AM 82.4 °F 92.4 °F 78.8 °F 89% 30.02 in 5.0 mi ESE 3.5 mph - N/A   Mostly Cloudy
9:36 AM 82.4 °F 92.4 °F 78.8 °F 89% 30.02 in 6.0 mi Calm Calm - N/A   Scattered Clouds
9:56 AM 84.9 °F 97.5 °F 79.0 °F 82% 30.04 in 7.0 mi Variable 3.5 mph - N/A   Clear
10:56 AM 91.9 °F 103.2 °F 75.0 °F 58% 30.04 in 10.0 mi SE 3.5 mph - N/A   Clear
11:56 AM 89.1 °F 104.4 °F 79.0 °F 72% 30.04 in 8.0 mi East 8.1 mph - N/A   Clear
12:56 PM 89.1 °F 94.1 °F 70.0 °F 53% 30.03 in 10.0 mi SSE 6.9 mph - N/A   Scattered Clouds
1:56 PM 87.1 °F 95.4 °F 73.9 °F 65% 30.03 in 10.0 mi Calm Calm - 0.00 in   Scattered Clouds
2:56 PM 80.1 °F 84.5 °F 73.9 °F 81% 30.02 in 7.0 mi West 5.8 mph - 0.00 in   Clear
3:56 PM 82.0 °F 90.2 °F 77.0 °F 85% 30.01 in 5.0 mi Calm Calm - 0.03 in Rain Light Rain
4:56 PM 82.9 °F 90.8 °F 75.9 °F 79% 30.00 in 8.0 mi Calm Calm - 0.02 in Rain Light Rain
5:56 PM 82.9 °F 91.8 °F 77.0 °F 82% 30.00 in 8.0 mi Calm Calm - 0.00 in   Clear
6:56 PM 80.1 °F 85.1 °F 75.0 °F 85% 30.02 in 9.0 mi NW 10.4 mph - 0.00 in Rain Light Rain
7:56 PM 80.1 °F 84.5 °F 73.9 °F 81% 30.03 in 10.0 mi NW 3.5 mph - 0.01 in Rain Light Rain
8:56 PM 80.1 °F 84.5 °F 73.9 °F 81% 30.03 in 10.0 mi NNW 4.6 mph - 0.00 in Rain Light Rain
9:56 PM 81.0 °F 86.2 °F 73.9 °F 79% 30.02 in 10.0 mi ESE 3.5 mph - 0.00 in   Partly Cloudy
10:56 PM 80.1 °F 84.2 °F 73.0 °F 79% 30.03 in 10.0 mi SSE 3.5 mph - N/A   Clear
11:56 PM 79.0 °F - 73.9 °F 84% 30.03 in 10.0 mi South 3.5 mph - N/A   Clear